This is the latest recevied weather packets stored in our database for station/object KE0PRS. If no packets are shown the sender has not sent any weather packets the latest 10 day(s).
| Time | Temp. | Humidity | Pressure | Rain* | Wind** | Luminosity | Snow |
|---|---|---|---|---|---|---|---|
| 1787600278 | 35.56° C | 38% | 1014.3 hPa | 0 mm | - | 764 W/m² | - |
| 1787599974 | 35.56° C | 37% | 1014.5 hPa | 0 mm | - | 765 W/m² | - |
| 1787599670 | 35° C | 38% | 1014.5 hPa | 0 mm | - | 726 W/m² | - |
| 1787599367 | 35° C | 39% | 1014.5 hPa | 0 mm | - | 738 W/m² | - |
| 1787599062 | 35° C | 39% | 1014.6 hPa | 0 mm | - | 702 W/m² | - |
| 1787598758 | 35° C | 39% | 1014.4 hPa | 0 mm | - | 642 W/m² | - |
| 1787598453 | 35° C | 39% | 1014.6 hPa | 0 mm | - | 610 W/m² | - |
| 1787598149 | 35° C | 39% | 1014.4 hPa | 0 mm | - | 793 W/m² | - |
| 1787597844 | 35° C | 40% | 1014.5 hPa | 0 mm | - | 782 W/m² | - |
| 1787597543 | 35° C | 40% | 1014.5 hPa | 0 mm | - | 781 W/m² | - |
| 1787597242 | 34.44° C | 40% | 1014.5 hPa | 0 mm | - | 783 W/m² | - |
| 1787596938 | 34.44° C | 41% | 1014.5 hPa | 0 mm | - | 785 W/m² | - |
| 1787596634 | 34.44° C | 41% | 1014.7 hPa | 0 mm | - | 741 W/m² | - |
| 1787596334 | 34.44° C | 40% | 1014.7 hPa | 0 mm | - | 791 W/m² | - |
| 1787596030 | 34.44° C | 41% | 1014.6 hPa | 0 mm | - | 788 W/m² | - |
| 1787595726 | 33.89° C | 41% | 1014.7 hPa | 0 mm | - | 586 W/m² | - |
| 1787595421 | 33.89° C | 41% | 1014.7 hPa | 0 mm | - | 800 W/m² | - |
| 1787595116 | 33.33° C | 42% | 1014.8 hPa | 0 mm | - | 778 W/m² | - |
| 1787594811 | 32.78° C | 44% | 1014.7 hPa | 0 mm | - | 714 W/m² | - |
| 1787594510 | 32.78° C | 45% | 1014.7 hPa | 0 mm | - | 703 W/m² | - |
| 1787594209 | 32.22° C | 46% | 1014.7 hPa | 0 mm | - | 775 W/m² | - |
| 1787593904 | 31.67° C | 46% | 1014.9 hPa | 0 mm | - | 781 W/m² | - |
| 1787593600 | 31.67° C | 46% | 1015.1 hPa | 0 mm | - | 804 W/m² | - |
| 1787593295 | 31.67° C | 48% | 1015.2 hPa | 0 mm | - | 783 W/m² | - |
| 1787592990 | 31.67° C | 46% | 1015.1 hPa | 0 mm | - | 443 W/m² | - |
* Rain latest hour (hover to see other rain measurements)
** Current wind speed in m/s (hover to see current wind gust speed)